www.pogodaiklimat.ru

Погода и климат >> Архив погоды >> Россия >> Краснодарский край >> Краснодар


АРХИВ ПОГОДЫ в Краснодаре

Время (UTC), дата Ветер
(напр.,м/с)
 
Видим.   Явления Облачность Т
(С)
Тd
(С)
f
(%)
Тe
(С)
Тes
(С)
Комфортность P
(гПа)
Po
(гПа)
Тmin
(С)
Tmax
(С)
R
(мм)
R24
(мм)
S
(см)
18 11.10 С 4 10 км ясно +16.6 +6.1 50 +16 +16 тепло 1022.1 1017.9
21 11.10 СВ 4 10 км ясно +14.6 +5.2 53 +14 +14 тепло 1022.6 1018.4
00 12.10 С 4 10 км ясно +13.0 +5.5 60 +11 +11 по сезону 1023.0 1018.8
03 12.10 СВ 3 10 км ясно +11.4 +5.0 65 +10 +10 по сезону 1024.2 1020.0 +11.3
06 12.10 СВ 6 10 км ясно +14.9 +5.7 54 +13 +14 по сезону 1025.7 1021.5 +11.2
09 12.10 СВ 7 10 км ясно +20.6 +5.4 37 +21 +23 комфорт 1026.3 1022.2
12 12.10 СВ 8-12
{13}
10 км ясно +21.5 +4.6 33 +22 +23 комфорт 1026.0 1021.9
15 12.10 СВ 8-11
{14}
10 км ясно +17.6 -0.7 29 +17 +17 тепло 1026.4 1022.2 +22.1
18 12.10 СВ 9-12
{15}
10 км ясно +14.5 -3.9 28 +12 +12 по сезону 1027.1 1022.9
21 12.10 СВ 7-11
{12}
10 км ясно +11.9 -1.5 39 +9 +9 по сезону 1027.6 1023.3
00 13.10 СВ 5 10 км ясно +9.7 -0.8 48 +7 +7 по сезону 1027.7 1023.4
03 13.10 СВ 5 10 км ясно +8.1 -1.2 52 +5 +5 холодно 1028.1 1023.8 +8.0
06 13.10 СВ 6 10 км ясно +11.3 -0.2 45 +9 +10 по сезону 1028.7 1024.4 +7.7
09 13.10 СВ 7 10 км ясно +17.8 +2.1 35 +17 +19 тепло 1027.7 1023.5
12 13.10 СВ 8-11
{13}
10 км ясно +20.3 -0.1 25 +20 +21 тепло 1026.3 1022.2
15 13.10 СВ 5
{12}
10 км ясно +17.0 -3.7 24 +16 +16 по сезону 1025.9 1021.7 +20.7
18 13.10 СВ 5 10 км ясно +13.5 -7.2 23 +12 +12 по сезону 1026.3 1022.1
21 13.10 СВ 5 10 км ясно +11.5 -5.9 29 +10 +10 по сезону 1026.0 1021.7
00 14.10 С 4 10 км ясно +9.3 -5.4 35 +7 +7 по сезону 1026.0 1021.7
03 14.10 штиль 0 10 км ясно +5.9 -3.1 52 +6 +6 прохладно 1026.3 1022.0 +5.8
06 14.10 В 3 10 км ясно +11.4 -1.9 39 +10 +12 по сезону 1026.8 1022.5 +5.1
09 14.10 В 5 10 км 8/0
[Ac trans Ci]
+19.3 -2.9 22 +19 +21 тепло 1025.7 1021.6
12 14.10 С 4 10 км 6/0
[Ci fib]
+22.7 -1.5 20 +22 +24 комфорт 1023.6 1019.5
15 14.10 С 2 10 км 8/0 2000 м
[Ac trans Ci]
+18.4 -1.9 25 +19 +19 тепло 1023.4 1019.3 +23.1
18 14.10 С 4 10 км 3/0
[Ci fib]
+14.5 +1.1 40 +13 +13 по сезону 1024.2 1020.0
21 14.10 СВ 2 10 км 3/0
[Ci fib]
+12.4 +1.2 46 +12 +12 по сезону 1024.2 1020.0
00 15.10 С 3 10 км 3/0
[Ci fib]
+11.2 +0.9 49 +10 +10 по сезону 1024.0 1019.8
03 15.10 штиль 0 10 км 3/0
[Ci fib]
+6.0 +2.0 75 +5 +5 прохладно 1024.5 1020.2 +5.9
06 15.10 СВ 3 10 км 3/0
[Ci fib]
+13.4 +2.0 46 +12 +14 по сезону 1025.2 1021.0 +5.0
09 15.10 СВ 6 10 км 6/0
[Ci fib]
+21.1 +1.8 28 +21 +23 комфорт 1024.7 1020.6
12 15.10 СВ 7 10 км 8/0
[Ci fib]
+23.5 +2.8 26 +23 +24 комфорт 1023.6 1019.5
15 15.10 СВ 4 10 км 8/0
[Ci fib]
+20.3 +3.1 32 +21 +21 комфорт 1023.6 1019.5 +23.9
18 15.10 СВ 5 10 км 8/0
[Ci fib]
+18.1 +4.3 40 +18 +18 тепло 1023.9 1019.8
21 15.10 СВ 5 10 км 5/0
[Ci fib]
+16.0 +5.3 49 +15 +15 тепло 1023.5 1019.3
00 16.10 СВ 4 10 км 3/0
[Ci fib]
+14.5 +5.3 54 +13 +13 тепло 1023.5 1019.3
03 16.10 СВ 3 10 км ясно +12.3 +4.8 60 +11 +11 по сезону 1023.7 1019.5 +12.3
06 16.10 СВ 6 10 км ясно +17.4 +5.0 44 +17 +17 тепло 1024.5 1020.3 +11.6
09 16.10 СВ 8-12
{12}
10 км ясно +22.6 +5.7 33 +23 +24 комфорт 1023.7 1019.6
12 16.10 СВ 7-10
{12}
10 км ясно +24.7 +7.9 34 +25 +26 комфорт 1022.5 1018.5
15 16.10 СВ 6 10 км ясно +21.3 +8.6 44 +22 +22 комфорт 1022.2 1018.1 +25.1
18 16.10 СВ 6 10 км ясно +18.9 +8.3 50 +19 +19 тепло 1022.4 1018.3
21 16.10 СВ 4 10 км ясно +16.1 +8.0 59 +15 +15 тепло 1022.5 1018.3
00 17.10 СВ 3 10 км ясно +13.7 +7.7 67 +13 +13 тепло 1022.5 1018.3
03 17.10 СВ 3 10 км ясно +12.1 +7.1 71 +11 +11 по сезону 1022.7 1018.5 +12.0
06 17.10 В 5 10 км ясно +14.7 +7.7 63 +13 +14 тепло 1023.0 1018.8 +11.3
09 17.10 В 3 10 км 1/0
[Ci]
+20.6 +8.8 47 +22 +28 комфорт 1022.1 1018.0
12 17.10 СВ 6 10 км 1/0
[Ci fib]
+24.9 +7.1 32 +25 +26 комфорт 1020.7 1016.7
15 17.10 СВ 4 10 км ясно +21.3 +6.5 38 +22 +22 комфорт 1020.0 1015.9 +25.0
18 17.10 СВ 5 10 км ясно +18.0 +9.1 56 +18 +18 тепло 1020.4 1016.3
21 17.10 СВ 4 10 км ясно +15.5 +9.3 67 +15 +15 тепло 1020.3 1016.1
00 18.10 СВ 3 10 км ясно +13.4 +9.2 76 +12 +12 тепло 1020.3 1016.1
03 18.10 СВ 2 4000 м дымка ясно +10.6 +8.5 87 +9 +9 по сезону 1020.1 1015.9 +10.6
06 18.10 В 4 4000 м дымка ясно +14.1 +9.9 76 +13 +14 тепло 1020.7 1016.5 +10.3
09 18.10 СВ 4 10 км ясно +19.7 +10.4 55 +21 +25 комфорт 1019.6 1015.5
12 18.10 В 5 10 км ясно +23.3 +8.7 39 +25 +26 комфорт 1018.0 1014.0

 

Местоположение метеостанции Краснодар (Краснодарский край, Россия): широта 45.05 долгота 39.03 высота над уровнем моря 29 м.

В архиве по умолчанию представлена погода в Краснодаре за последнюю неделю. Архивные данные за месяц целиком и за предыдущие месяцы, начиная с января 2011 года, Вы можете получить, выбрав интересующий диапазон дат из раскрывающегося списка и нажав кнопку "Ввод!".


*Определитесь, кто Вы:
робот инопланетянин человек

Внимание! Время в таблицах - всемирное. Для получения местного времени необходимо прибавить поправку, которая в Краснодаре равна 3 ч.

Смотрите также архив погоды в соседних городах и на ближайших метеорологических станциях:

Погода в Горячем Ключе (Краснодарский край, Россия) (47 км)
Погода в Усть-Лабинске (Краснодарский край, Россия) (58 км)
Погода в Кореновске (Краснодарский край, Россия) (59 км)
Погода в Тимашевске (Краснодарский край, Россия) (65 км)
Погода в Славянске-на-Кубани (Краснодарский край, Россия) (76 км)
Погода в Белореченске (Краснодарский край, Россия) (76 км)
Погода в Крымске (Краснодарский край, Россия) (82 км)
Погода в Джубге (Краснодарский край, Россия) (84 км)
Погода в Горном (Краснодарский край, Россия) (88 км)
Погода в Геленджике (Краснодарский край, Россия) (92 км)

Пояснения к столбцам:

Ветер - указаны скорость ветра в м/с - средняя за 10 мин, порывы в срок и между сроками (в фигурных скобках) и направление, откуда дует ветер: С - северный, СВ - северо-восточный, В - восточный, ЮВ - юго-восточный, Ю - южный, ЮЗ - юго-западный, З - западный, СЗ - северо-западный.
Видимость - горизонтальная дальность видимости в метрах или километрах. При видимости от 1 до 10 км при отсутствии осадков обычно наблюдается дымка, при ухудшении видимости до 1 км и менее - туман. В сухую погоду видимость может ухудшаться дымом, пылью или мглою.
Явления - указаны атмосферные явления, наблюдавшиеся в срок или в последний час перед сроком; фигурными скобками обозначены явления, наблюдавшиеся между сроками (за 1-3 часа до срока); квадратными скобками обозначены град или гололедные отложения с указанием их диаметра в мм.
Облачность - указаны через наклонную черту общая и нижняя облачность в баллах и высота нижней границы облаков в метрах; квадратными скобками обозначены формы облаков: Ci - перистые, Cs - перисто-слоистые, Cc - перисто-кучевые, Ac - высококучевые, As - высокослоистые, Sc - слоисто-кучевые, Ns - слоисто-дождевые, Cu - кучевые, Cb - кучево-дождевые. Подробнее классификацию облаков см. в Атласе облаков (PDF).
T - Температура воздуха - температура, измеренная на высоте 2 м над землей.
Td - Температура точки росы - температура, при понижении до которой содержащийся в воздухе водяной пар достигнет насыщения.
f - Относительная влажность воздуха - влажноcть воздуха, измеренная на высоте 2 м над землей.
Te - Эффективная температура - температура, которую ощущает одетый по сезону человек в тени. Характеристика душности погоды. При расчете учитывается влияние влажности воздуха и скорости ветра на теплоощущения человека.
Tes - Эффективная температура на солнце - температура, которую ощущает человек, с поправкой на солнечный нагрев. Характеристика знойности погоды. Зависит от высоты солнца над горизонтом, облачности и скорости ветра. Ночью, в пасмурную погоду, а также при ветре 12 м/с и более поправка равна нулю.
P - Атмосферное давление - приведенное к уровню моря атмосферное давление.
Po - Атмосферное давление - измеренное на уровне метеостанции атмосферное давление.
Tmin - Минимальная температура - минимум температуры воздуха на высоте 2 м над землей.
Tmax - Максимальная температура - максимум температуры воздуха на высоте 2 м над землей.
R - Количество осадков - Количество выпавших осадков за период времени, мм. При наведении курсора мыши на число - период времени, за который выпало указанное количество осадков.
R24 - Количество осадков - Количество выпавших осадков за 24 часа, мм.
S - Снежный покров - Высота снежного покрова, см. При наведении курсора мыши на число - состояние снежного покрова и степень покрытия местности в баллах.